Погода в Каргасоке

Погода в Каргасоке : погода сейчас, прогноз погоды и архив. Всё, что Вы хотите узнать о погоде в Каргасоке!

Хотите узнать прогноз погоды в Каргасоке? Тогда Вам сюда: Погода в Каргасоке

Поиск расширенной информации на нашем сайте:

Полезная информация: Варикозно расширенные вены.

Другие новости

Новости СМИ2

Главная страница сайта

Новости сайта

03.07.2017

Напоминаем, что на нашем специализированном сайте Метеоцентр.Азия вы можете получить высокодетализированные автоматические прогнозы погоды по пунктам России, СНГ и мира в авиационном формате (включающие направление и скорость ветра, видимость, явления погоды, количество и форму облачности, нижнюю и верхнюю границу облачности).

Рекомендуем: Вытянуть вмятину без покраски как убрать вмятину без покраски.

Погода в Каргасоке - сегодня

Время (UTC), дата Ветер
(°,м/с) 
Видим.   Явления Облачность Т
(°С)
Тd
(°С)
f(%) Тe
(°С)
Pmin
(гПа)
dP
(гПа)
Po
(мм)
O2
(г/м3)
Тmin Tmax R s Состояние
почвы
03 15.06.18 260 (З) 20000 м  {ливн. осадки}  9/3 600 м кучево-дожд., средняя 
[Cb calv|Ac trans]
+13.9 +10.3 79 +16  1005.1  0.2  749  285           
06 15.06.18 230 (ЮЗ) 20000 м  {ливн. осадки}  10/3 1000 м средняя 
[Sc|Ac und]
+16.5 +10.6 68 +19  1005.8  0.8  749  283           
09 15.06.18 230 (ЮЗ) 20000 м    9/3 1500 м средняя 
[Cu med, cong|Ac trans]
+18.7 +9.2 54 +20  1005.7  -0.1  749  281           
12 15.06.18 110 (В) 20000 м    9/0 средняя 
[Ac trans]
+18.8 +11.4 62 +23  1005.4  -0.3  749  280    +19.7  0.0     
15 15.06.18 120 (ЮВ) 20000 м    8/1 1000 м средняя 
[Sc|Ac trans]
+16.8 +10.9 68 +20  1005.8  0.4  749  282           
18 15.06.18 130 (ЮВ) 20000 м    1/0 средняя 
[Ac trans]
+11.9 +9.9 88 +14  1005.5  -0.4  749  287           
21 15.06.18 тихо ()   20000 м  местами туман поземный  ясно 
+10.7 +9.9 95 +12  1005.5  -0.1  749  289           
00 16.06.18 110 (В) 20000 м    3/0 средняя 
[Ac trans]
+16 +12.4 79 +22  1004.9  -0.4  749  283  +9.8        влажная 
03 16.06.18 120 (ЮВ) 20000 м    8/0 средняя 
[Ac lent]
+18.1 +12.6 70 +24  1004.8  0.1  749  280           
06 16.06.18 100 (В) 20000 м    9/4 1500 м средняя 
[Cu Sc|Ac trans]
+18.9 +13.1 69 +26  1005.1  0.2  749  280           
09 16.06.18 170 (Ю) 20000 м  гроза без осадков  9/3 600 м кучево-дожд., средняя, верхняя 
[Cb cap|Ac trans|Ci sp]
+19.1 +13.2 69 +26  1004.7  -0.4  749  279           
12 16.06.18 300 (СЗ) 20000 м  гроза без осадков{ливн. осадки}  9/3 600 м кучево-дожд., средняя, верхняя 
[Cb cap|Ac lent|Ci sp]
+15.7 +14.7 94 +24  1004.7  -0.1  749  282    +20.4  12     
21 16.06.18 200 (Ю) 20000 м    10/0 средняя, верхняя 
[Ac trans|Ci sp]
+10.9 +9.4 90 +11  1006.4  0.8  750  289           
00 17.06.18 180 (Ю) 20000 м    1/1 1500 м 
[Cu med, cong]
+11.5 +8.9 84 +13  1007.4  0.9  750  289  +10.4      влажная 
03 17.06.18 110 (В) 20000 м    1/0 средняя 
[Ac trans]
+16.8 +10.1 65 +19  1007.5  0.2  751  283           
06 17.06.18 110 (В) 20000 м    8/4 1500 м средняя 
[Cu med, cong|Ac trans]
+18.4 +10.8 61 +21  1007.4  0.1  751  281           
09 17.06.18 090 (В) 20000 м    8/4 1000 м средняя 
[Cu med, cong|Ac trans]
+18.5 +8.7 53 +19  1007.2  -0.2  750  282           
12 17.06.18 120 (ЮВ) 20000 м    9/4 1000 м средняя 
[Cu med, cong|Ac trans]
+18.7 +10.9 60 +21  1006.7  -0.5  750  281    +20.1       
15 17.06.18 100 (В) 20000 м    10/3 600 м кучево-дожд., средняя, верхняя 
[Cb calv|Ac trans|Ci sp]
+17.5 +11.5 68 +21  1006  -0.7  749  282           
18 17.06.18 130 (ЮВ) 4000 м  слаб. ливневой дождь  10/4 600 м кучево-дожд., средняя 
[Cb calv|Ac und]
+14.2 +13.1 93 +21  1005.4  -0.7  749  284           
00 18.06.18 140 (ЮВ) 20000 м  {ливн. осадки}  9/6 660 м средняя 
[Sc|Ac trans]
+15 +13.9 93 +23  1002.9  -0.3  747  282  +14.2      влажная 
03 18.06.18 190 (Ю) 20000 м    10/8 400 м кучево-дожд., средняя 
[Cb calv|Ac und]
+16.2 +14.3 89 +25  1003.9  748  281           
06 18.06.18 240 (ЮЗ) 20000 м    9/4 600 м средняя, верхняя 
[Sc|Ac trans|Ci sp]
+18.3 +12.8 70 +24  1004.4  0.6  748  280           
09 18.06.18 130 (ЮВ) 20000 м    9/3 1000 м средняя, верхняя 
[Sc|Ac trans|Ci sp]
+19.9 +13.6 67 +27  1004.6  0.2  748  278           
12 18.06.18 290 (З) 20000 м    10/3 1000 м средняя, верхняя 
[Sc|Ac trans|Ci sp]
+17 +13.3 79 +23  1005.6  749  282    +21       
Время (UTC), дата Ветер
(°,м/с) 
Видим.   Явления Облачность Т
(°С)
Тd
(°С)
f(%) Тe
(°С)
Pmin
(гПа)
dP
(гПа)
Po
(мм)
O2
(г/м3)
Тmin Tmax R s Состояние
почвы

Для получения пояснительной информации подведите курсор к названию столбца.

ПОГОДА в Каргасоке - архив

Всё, что Вы хотите узнать о погоде в Каргасоке - удобно и подробно!

Выберите нужную дату (начиная с 1 января 2015* года) и нажмите кнопку "Найти".
Будут отображены архивные сводки погоды по пункту Каргасок, начиная с указанной даты.


Отображать данные в формате CSV (для использования в таблицах Excel)


Внимание! Наш архив погоды предназначен исключительно для личного некоммерческого использования в познавательных целях. Если Вам необходимы официальные справки о состоянии погоды (для производственных, юридических, коммерческих и т.п. целей), обращайтесь в органы Росгидромета.

*Примечание: данная дата относится к архиву по метеостанциям СССР (Россия, СНГ, Балтия).
Архив по метеостанциям Зарубежной Европы и Азии (кроме Китая) хранится 10 дней, по другим регионам земного шара (Китай, Африка, Америка, Австралия, Океания) - 1 день.

Каргасок - район местоположения метеостанции


Название, широта, долгота, высота метеостанции:
Каргасок 59.1°ш. 80.9°д. 59 м над ур. моря [Российская Федерация]

Дополнительная информация

В oтличие oт бoльшинства пoгoдных сайтoв мы публикуем пoдрoбную метеoинфoрмацию в детальнoм прoфессиoнальнoм фoрмате.

Характеристики температуры и влажнoсти вoздуха измеряются на высoте 2 м в тени вдали oт зданий и деревьев.
Скoрoсть ветра измеряется на высoте 10 м (на урoвне рoста челoвека скoрoсть ветра ниже в 1.5-2 раза). Если метеoстанция нахoдится в гoрoде или в лесу, тo скoрoсть ветра занижена на 2-4 м/с пo сравнению с oткрытым местoм. Скoрoсть ветра над акватoриями крупных рек и oзёр, а также на вершинах хoлмoв на 2-5 м/с выше, чем в oбычных услoвиях.
Атмoсфернoе давление в разных тoчках местнoсти мoжет значительнo oтличаться oт давления на метеoстанции, в зависимoсти oт услoвий рельефа (при пoдъёме на 10 м давление пoнижается примернo на 1 мм рт.ст.).